SCATSAT 1 (41790 NORAD) Tracking and Keplerian Element Data

This shows tracking and keplerian element data for the satellite.

Feedback or suggestion? Click here.




ElementValue
Catalog41790
NameSCATSAT 1
Epoch Orbit13619
Epoch Day113.58322507
Epoch Year2019
RAAN159.9975
Inclination98.2157
Eccentricity0.0017362
Argument of Perigee215.6763
Mean Anonmoly144.3272
Mean Motion14.50875341
Decay Rate-6E-08
L11 41790U 16059H 19113.58322507 -.00000006 00000-0 96139-5 0 9999
L22 41790 98.2157 159.9975 0017362 215.6763 144.3272 14.50875341136190

Live tracking and technical data element details for SCATSAT 1 (NORAD 41790). SCATSAT 1 can be tracked NOW for your location showing map with azimuth and elevation plus other details from your city location.

Track the satellite on the map from your city or location and see movement details for azimuth, elevation, latitude, longitude, range, height, and movement on the map or in text.







IsCatalogInMostPopularTable: catalog: 41790, numindb: 197
Update: records affected: 1



GetName: 41790 SCATSAT 1

Hit Count: updated at: Wed, 24 Apr 2019 18:19:25 GMT